Location: Emblem
(62.4273°N, 6.4710°E)
Time: 00:58:19
(UTC+02:00)

UWE-3 - Pass Details

Date: 29 March 2023
Orbit: 577 x 669 km, 97.7° (Epoch: 06 June)

Event Time Altitude Azimuth Distance (km) Brightness Sun altitude
Rises 04:07:13 0° 18° (NNE) 3,025 ? -18.6°
Reaches altitude 10° 04:09:37 10° 27° (NNE) 2,097 ? -18.4°
Maximum altitude 04:13:53 37° 95° (E) 1,019 ? -18.1°
Enters shadow 04:17:34 13° 161° (SSE) 1,865 ? -17.8°
